DECAYED

STARLINK-3309, 50158 (Decayed)

Orbit data source: Space-Track

STARLINK-3309, 50158 was a payload satellite owned by SpaceX/Seattle (US) in LEO that was launched on Sat, 18 Dec 2021 UTC via an FALCON 9 launch vehicle from the Air Force Western Test Range (AFWTR). Payload-class satellites include a variety of spacecraft equipped with specific instruments for various scientific and technological missions. These include communications satellites like Starlink; space stations such as the ISS; scientific satellites like the Hubble; Earth observation satellites from companies like Planet Labs, Umbra, and HawkEye 360; GPS; miniature CubeSats for education and research; and military/defense satellites.

Not visible in the next 10 days
Identifier
50158, 2021-125C
Orbit
Decayed
Country
Flag of USUS
Related business
Manufacturer
SpaceX/Seattle
Mission
Decayed Commercial Communications
Bus & Motor
STARLINK, Unknown motor
Mass
290 kg wet, ~270 kg dry
Launch date (UTC)
2021-12-18 (5 years ago)
Launch vehicle
FALCON 9
Launch site
Air Force Western Test Range (AFWTR)
Object type
Payload
Rocket body
Debris
Shape & HBR
Box + 1 Pan, 10.1 m
Radar Cross Section
13.562 m², Large (>1 m²)

Expand to show TLE details & history
Last TLE update: 7 months ago

TLE from 7 months ago
0 STARLINK-3309
1 50158U 21125C   25327.01659431  .11937645  12563-4  25433-3 0  9995
2 50158  53.2003 355.3774 0001712  34.5262 325.5901 16.46870949220723
Epoch: 2025-11-23T00:23Z
TLE epoch observation values (Epoch: 2025-11-23T00:23:53.748Z)
Latitude
0.00002°
Longitude
-72.8335°
Altitude
147.616 km
Speed
7.819 km/s
True Right ascension
23h 41m 30s
True Declination
0° 00' 00"
Sunlit
Object was in full shadow at epoch
Visualization orbit readout
Latitude
Unknown
Longitude
Unknown
Altitude
Unknown
Speed
Unknown
Apparent Right ascension
Unknown
Apparent Declination
Unknown
Sunlit
N/A
Visualization observer readout
Local Sidereal Time
14:01:45
Azimuth
Unknown
Elevation
Unknown
Doppler factor
Unknown
Orbital elements
Apogee altitude
148.968 km
Perigee altitude
146.733 km
Semi-major axis
6,525.987 km
Eccentricity
0.00017
Inclination
53.2003°
RAAN
355.3774°
Arg. of periapsis
34.5262°
True anomaly
325.57901°
Mean anomaly
325.5901°
Eccentric anomaly
325.58456°
Mean motion
4.11693 °/min
Orbital period
87.44 mins
BSTAR
0.00025433
Loading maneuver chart data...
Computing Atmospheric mass density...
Loading historical data...
Loading historical data...
Loading historical data...
Loading historical data...
Loading historical data...
Loading historical data...
Loading historical data...

Documentation

Showing up to 5 results
|